ARG1517 SASJ-SABE

Flight info

Callsign ARG1517
Flight time 1h 38m
Altitude 37000
Route ASODO1C ASODO UT672 MULTA UW24 SNT SNT8Q
Aircraft B738/M-MSDFGHILRVW/LB1

Departure

Time 2026-04-20 00:24
Airport Gobernador Horacio Guzman International Airport (SASJ)

Arrival

Time 2026-04-20 02:02
Airport Aeroparque Jorge Newbery (SABE)
Time Latitude Longitude Altitude Speed Heading
2026-04-19 23:47 -24.38625 -65.09467 2997 ft 0 kts 60°
2026-04-20 00:11 -24.38628 -65.09472 2997 ft 4 kts 58°
2026-04-20 00:11 -24.38645 -65.09494 2997 ft 4 kts 30°
2026-04-20 00:12 -24.38668 -65.09499 2997 ft 4 kts 339°
2026-04-20 00:12 -24.38675 -65.09496 2997 ft 1 kts 330°
2026-04-20 00:16 -24.38674 -65.09496 2997 ft 0 kts 330°
2026-04-20 00:16 -24.38661 -65.09505 2997 ft 5 kts 330°
2026-04-20 00:16 -24.38620 -65.09531 2996 ft 7 kts 330°
2026-04-20 00:17 -24.38577 -65.09558 2996 ft 7 kts 330°
2026-04-20 00:17 -24.38564 -65.09602 2996 ft 7 kts 254°
2026-04-20 00:17 -24.38589 -65.09651 2996 ft 8 kts 240°
2026-04-20 00:17 -24.38620 -65.09710 2996 ft 10 kts 240°
2026-04-20 00:18 -24.38656 -65.09780 2996 ft 12 kts 240°
2026-04-20 00:18 -24.38699 -65.09858 2997 ft 11 kts 239°
2026-04-20 00:18 -24.38765 -65.09870 2997 ft 11 kts 148°
2026-04-20 00:18 -24.38840 -65.09822 2997 ft 14 kts 150°
2026-04-20 00:19 -24.38925 -65.09821 2997 ft 15 kts 226°
2026-04-20 00:19 -24.38993 -65.09853 2998 ft 10 kts 180°
2026-04-20 00:19 -24.39072 -65.09852 2999 ft 13 kts 174°
2026-04-20 00:19 -24.39170 -65.09835 2998 ft 16 kts 160°
2026-04-20 00:20 -24.39280 -65.09773 2998 ft 19 kts 150°
2026-04-20 00:20 -24.39406 -65.09694 2998 ft 23 kts 150°
2026-04-20 00:20 -24.39548 -65.09602 2998 ft 24 kts 149°
2026-04-20 00:20 -24.39698 -65.09507 2998 ft 26 kts 150°
2026-04-20 00:21 -24.39862 -65.09404 2999 ft 28 kts 150°
2026-04-20 00:21 -24.40029 -65.09298 2998 ft 27 kts 150°
2026-04-20 00:21 -24.40187 -65.09198 2998 ft 25 kts 150°
2026-04-20 00:21 -24.40322 -65.09112 2996 ft 16 kts 150°
2026-04-20 00:22 -24.40367 -65.09080 2996 ft 1 kts 114°
2026-04-20 00:22 -24.40364 -65.09051 2996 ft 6 kts 99°
2026-04-20 00:22 -24.40386 -65.09062 2996 ft 7 kts 282°
2026-04-20 00:22 -24.40346 -65.09105 2996 ft 9 kts 335°
2026-04-20 00:23 -24.40294 -65.09135 2997 ft 9 kts 328°
2026-04-20 00:23 -24.40195 -65.09197 2998 ft 38 kts 330°
2026-04-20 00:23 -24.39746 -65.09481 2998 ft 108 kts 330°
2026-04-20 00:23 -24.38913 -65.10002 3003 ft 165 kts 330°
2026-04-20 00:24 -24.37873 -65.10668 3537 ft 176 kts 330°
2026-04-20 00:24 -24.36799 -65.11362 4290 ft 178 kts 330°
2026-04-20 00:24 -24.35731 -65.12061 4936 ft 188 kts 331°
2026-04-20 00:24 -24.34534 -65.12817 5360 ft 208 kts 331°
2026-04-20 00:25 -24.33218 -65.13678 5607 ft 228 kts 329°
2026-04-20 00:25 -24.31905 -65.14688 6020 ft 241 kts 316°
2026-04-20 00:25 -24.31037 -65.16381 6202 ft 269 kts 284°
2026-04-20 00:25 -24.31009 -65.18490 6496 ft 291 kts 264°
2026-04-20 00:26 -24.31246 -65.20692 7332 ft 289 kts 261°
2026-04-20 00:26 -24.31880 -65.22765 8236 ft 289 kts 242°
2026-04-20 00:26 -24.33147 -65.24474 8995 ft 293 kts 214°
2026-04-20 00:26 -24.35046 -65.25314 9712 ft 299 kts 189°
2026-04-20 00:27 -24.37146 -65.25518 10421 ft 299 kts 184°
2026-04-20 00:27 -24.39232 -65.25766 11154 ft 305 kts 188°
2026-04-20 00:27 -24.41340 -65.26138 11767 ft 310 kts 191°
2026-04-20 00:27 -24.43458 -65.26543 12560 ft 313 kts 183°
2026-04-20 00:28 -24.45690 -65.26160 12618 ft 338 kts 155°
2026-04-20 00:28 -24.47679 -65.24719 13038 ft 350 kts 144°
2026-04-20 00:28 -24.49741 -65.23204 13378 ft 363 kts 147°
2026-04-20 00:28 -24.51902 -65.21717 13913 ft 368 kts 148°
2026-04-20 00:29 -24.54098 -65.20244 14486 ft 371 kts 149°
2026-04-20 00:29 -24.56294 -65.18785 15017 ft 375 kts 149°
2026-04-20 00:29 -24.58549 -65.17291 15544 ft 380 kts 149°
2026-04-20 00:29 -24.60836 -65.15775 16099 ft 383 kts 150°
2026-04-20 00:30 -24.63107 -65.14267 16642 ft 387 kts 150°
2026-04-20 00:30 -24.65425 -65.12727 17167 ft 391 kts 150°
2026-04-20 00:30 -24.67782 -65.11158 17684 ft 395 kts 150°
2026-04-20 00:30 -24.70121 -65.09600 18192 ft 400 kts 150°
2026-04-20 00:31 -24.72511 -65.08007 18648 ft 403 kts 150°
2026-04-20 00:31 -24.74923 -65.06398 19090 ft 407 kts 150°
2026-04-20 00:31 -24.77354 -65.04776 19533 ft 411 kts 150°
2026-04-20 00:31 -24.79822 -65.03127 19976 ft 416 kts 151°
2026-04-20 00:32 -24.82285 -65.01482 20402 ft 420 kts 151°
2026-04-20 00:32 -24.84787 -64.99809 20844 ft 424 kts 151°
2026-04-20 00:32 -24.87326 -64.98111 21280 ft 428 kts 151°
2026-04-20 00:32 -24.89889 -64.96396 21723 ft 432 kts 151°
2026-04-20 00:33 -24.92466 -64.94672 22178 ft 435 kts 151°
2026-04-20 00:33 -24.95062 -64.92932 22627 ft 439 kts 151°
2026-04-20 00:33 -24.97650 -64.91198 23036 ft 442 kts 151°
2026-04-20 00:33 -25.00294 -64.89426 23457 ft 446 kts 151°
2026-04-20 00:34 -25.02964 -64.87635 23814 ft 450 kts 151°
2026-04-20 00:34 -25.05653 -64.85830 24158 ft 452 kts 151°
2026-04-20 00:34 -25.08327 -64.84034 24511 ft 454 kts 151°
2026-04-20 00:34 -25.11036 -64.82214 24854 ft 457 kts 151°
2026-04-20 00:35 -25.13764 -64.80380 25199 ft 460 kts 151°
2026-04-20 00:35 -25.16518 -64.78528 25550 ft 462 kts 151°
2026-04-20 00:35 -25.19238 -64.76698 25915 ft 465 kts 151°
2026-04-20 00:35 -25.22013 -64.74830 26235 ft 467 kts 152°
2026-04-20 00:36 -25.24798 -64.72953 26557 ft 470 kts 152°
2026-04-20 00:36 -25.27596 -64.71067 26874 ft 472 kts 152°
2026-04-20 00:36 -25.30414 -64.69167 27186 ft 475 kts 152°
2026-04-20 00:36 -25.32288 -64.67903 27386 ft 476 kts 152°
2026-04-20 00:37 -25.36072 -64.65349 27795 ft 480 kts 152°
2026-04-20 00:37 -25.37959 -64.64074 27991 ft 481 kts 152°
2026-04-20 00:37 -25.40842 -64.62126 28275 ft 484 kts 152°
2026-04-20 00:37 -25.44671 -64.59537 28655 ft 487 kts 152°
2026-04-20 00:38 -25.46622 -64.58217 28857 ft 488 kts 152°
2026-04-20 00:38 -25.49494 -64.56272 29151 ft 490 kts 152°
2026-04-20 00:38 -25.52425 -64.54287 29429 ft 492 kts 152°
2026-04-20 00:38 -25.55363 -64.52296 29700 ft 495 kts 152°
2026-04-20 00:39 -25.58280 -64.50319 29956 ft 497 kts 152°
2026-04-20 00:39 -25.61235 -64.48313 30186 ft 498 kts 152°
2026-04-20 00:39 -25.64206 -64.46296 30409 ft 500 kts 152°
2026-04-20 00:39 -25.67152 -64.44295 30618 ft 502 kts 152°
2026-04-20 00:40 -25.70143 -64.42262 30830 ft 504 kts 152°
2026-04-20 00:40 -25.73147 -64.40219 31058 ft 505 kts 152°
2026-04-20 00:40 -25.76152 -64.38173 31321 ft 505 kts 152°
2026-04-20 00:40 -25.79148 -64.36133 31641 ft 504 kts 152°
2026-04-20 00:41 -25.82098 -64.34121 31963 ft 503 kts 153°
2026-04-20 00:41 -25.85092 -64.32080 32251 ft 503 kts 153°
2026-04-20 00:41 -25.88076 -64.30044 32524 ft 503 kts 153°
2026-04-20 00:41 -25.91026 -64.28031 32811 ft 503 kts 153°
2026-04-20 00:42 -25.94007 -64.25995 33106 ft 502 kts 153°
2026-04-20 00:42 -25.96989 -64.23957 33410 ft 501 kts 153°
2026-04-20 00:42 -25.99955 -64.21929 33688 ft 501 kts 153°
2026-04-20 00:42 -26.02932 -64.19891 33949 ft 501 kts 153°
2026-04-20 00:43 -26.05905 -64.17856 34195 ft 500 kts 153°
2026-04-20 00:43 -26.08830 -64.15852 34468 ft 499 kts 153°
2026-04-20 00:43 -26.11797 -64.13872 34742 ft 495 kts 156°
2026-04-20 00:43 -26.14845 -64.12092 34997 ft 492 kts 159°
2026-04-20 00:44 -26.17931 -64.10412 35241 ft 491 kts 159°
2026-04-20 00:44 -26.21011 -64.08726 35347 ft 494 kts 159°
2026-04-20 00:44 -26.24065 -64.07017 35380 ft 499 kts 158°
2026-04-20 00:45 -26.30324 -64.03496 35476 ft 506 kts 158°
2026-04-20 00:45 -26.36591 -63.99968 35699 ft 507 kts 158°
2026-04-20 00:45 -26.39767 -63.98179 35901 ft 506 kts 158°
2026-04-20 00:46 -26.42913 -63.96405 36115 ft 504 kts 158°
2026-04-20 00:46 -26.46012 -63.94658 36286 ft 503 kts 158°
2026-04-20 00:46 -26.49147 -63.92890 36432 ft 503 kts 158°
2026-04-20 00:46 -26.52274 -63.91125 36590 ft 503 kts 158°
2026-04-20 00:47 -26.55395 -63.89364 36768 ft 501 kts 158°
2026-04-20 00:47 -26.58520 -63.87598 36889 ft 502 kts 157°
2026-04-20 00:47 -26.61605 -63.85854 36873 ft 503 kts 157°
2026-04-20 00:48 -26.67844 -63.82323 36882 ft 501 kts 157°
2026-04-20 00:48 -26.74071 -63.78778 36885 ft 500 kts 156°
2026-04-20 00:49 -26.80211 -63.75244 36882 ft 499 kts 156°
2026-04-20 00:49 -26.86389 -63.71684 36882 ft 498 kts 156°
2026-04-20 00:50 -26.92574 -63.68120 36885 ft 498 kts 156°
2026-04-20 00:50 -26.98717 -63.64578 36883 ft 499 kts 156°
2026-04-20 00:51 -27.04916 -63.61000 36881 ft 501 kts 156°
2026-04-20 00:51 -27.11101 -63.57427 36882 ft 502 kts 155°
2026-04-20 00:52 -27.17330 -63.53824 36880 ft 504 kts 155°
2026-04-20 00:52 -27.23544 -63.50224 36879 ft 506 kts 155°
2026-04-20 00:53 -27.29810 -63.46589 36881 ft 507 kts 155°
2026-04-20 00:53 -27.36107 -63.42931 36882 ft 508 kts 155°
2026-04-20 00:54 -27.42367 -63.39290 36879 ft 510 kts 155°
2026-04-20 00:54 -27.48695 -63.35605 36885 ft 511 kts 156°
2026-04-20 00:55 -27.55002 -63.31927 36885 ft 513 kts 156°
2026-04-20 00:55 -27.61370 -63.28210 36882 ft 514 kts 156°
2026-04-20 00:56 -27.67718 -63.24498 36888 ft 516 kts 156°
2026-04-20 00:56 -27.74024 -63.20806 36890 ft 516 kts 156°
2026-04-20 00:57 -27.80428 -63.17052 36891 ft 517 kts 156°
2026-04-20 00:57 -27.86824 -63.13297 36890 ft 517 kts 156°
2026-04-20 00:58 -27.93176 -63.09564 36898 ft 517 kts 156°
2026-04-20 00:58 -27.99565 -63.05803 36894 ft 517 kts 156°
2026-04-20 00:59 -28.05918 -63.02059 36897 ft 517 kts 156°
2026-04-20 00:59 -28.12308 -62.98288 36896 ft 516 kts 156°
2026-04-20 01:00 -28.18654 -62.94538 36902 ft 516 kts 156°
2026-04-20 01:00 -28.25033 -62.90763 36900 ft 515 kts 156°
2026-04-20 01:01 -28.31405 -62.86987 36902 ft 515 kts 156°
2026-04-20 01:01 -28.37715 -62.83244 36897 ft 514 kts 156°
2026-04-20 01:02 -28.44070 -62.79468 36908 ft 514 kts 156°
2026-04-20 01:02 -28.50425 -62.75687 36910 ft 514 kts 156°
2026-04-20 01:03 -28.56736 -62.71927 36910 ft 514 kts 156°
2026-04-20 01:03 -28.63067 -62.68150 36908 ft 513 kts 156°
2026-04-20 01:04 -28.69362 -62.64388 36908 ft 513 kts 156°
2026-04-20 01:04 -28.75709 -62.60590 36911 ft 513 kts 156°
2026-04-20 01:05 -28.82007 -62.56817 36914 ft 513 kts 156°
2026-04-20 01:05 -28.88350 -62.53000 36914 ft 513 kts 156°
2026-04-20 01:06 -28.94627 -62.49201 36914 ft 513 kts 156°
2026-04-20 01:06 -29.00953 -62.45364 36917 ft 513 kts 156°
2026-04-20 01:07 -29.07238 -62.41550 36922 ft 513 kts 156°
2026-04-20 01:07 -29.13560 -62.37709 36919 ft 513 kts 156°
2026-04-20 01:08 -29.19873 -62.33869 36919 ft 514 kts 156°
2026-04-20 01:08 -29.26162 -62.30038 36926 ft 514 kts 156°
2026-04-20 01:09 -29.32485 -62.26179 36931 ft 513 kts 156°
2026-04-20 01:09 -29.38759 -62.22346 36930 ft 514 kts 156°
2026-04-20 01:10 -29.45046 -62.18499 36924 ft 514 kts 156°
2026-04-20 01:10 -29.54474 -62.12721 36922 ft 513 kts 156°
2026-04-20 01:11 -29.60783 -62.08847 36927 ft 513 kts 156°
2026-04-20 01:11 -29.67096 -62.04964 36935 ft 513 kts 156°
2026-04-20 01:12 -29.73363 -62.01105 36925 ft 512 kts 156°
2026-04-20 01:12 -29.79651 -61.97227 36926 ft 512 kts 156°
2026-04-20 01:13 -29.85904 -61.93370 36931 ft 511 kts 157°
2026-04-20 01:13 -29.92320 -61.90481 36944 ft 503 kts 167°
2026-04-20 01:14 -29.99016 -61.88132 36941 ft 502 kts 168°
2026-04-20 01:14 -30.05709 -61.85775 36934 ft 502 kts 167°
2026-04-20 01:15 -30.12390 -61.83351 36934 ft 503 kts 167°
2026-04-20 01:15 -30.19018 -61.80918 36939 ft 503 kts 167°
2026-04-20 01:16 -30.25711 -61.78457 36940 ft 503 kts 167°
2026-04-20 01:16 -30.32388 -61.76002 36935 ft 503 kts 167°
2026-04-20 01:17 -30.39025 -61.73560 36937 ft 503 kts 167°
2026-04-20 01:17 -30.45698 -61.71101 36934 ft 502 kts 167°
2026-04-20 01:18 -30.52330 -61.68653 36935 ft 502 kts 167°
2026-04-20 01:18 -30.59006 -61.66187 36931 ft 502 kts 167°
2026-04-20 01:19 -30.65684 -61.63728 36933 ft 502 kts 167°
2026-04-20 01:19 -30.72328 -61.61280 36925 ft 503 kts 167°
2026-04-20 01:20 -30.79003 -61.58815 36933 ft 503 kts 167°
2026-04-20 01:20 -30.85640 -61.56359 36934 ft 503 kts 167°
2026-04-20 01:21 -30.92335 -61.53878 36937 ft 504 kts 167°
2026-04-20 01:21 -30.99032 -61.51392 36936 ft 504 kts 167°
2026-04-20 01:22 -31.05692 -61.48917 36930 ft 505 kts 167°
2026-04-20 01:22 -31.12389 -61.46424 36932 ft 505 kts 167°
2026-04-20 01:23 -31.19070 -61.43933 36935 ft 506 kts 167°
2026-04-20 01:23 -31.25793 -61.41423 36936 ft 506 kts 167°
2026-04-20 01:24 -31.32514 -61.38909 36934 ft 507 kts 167°
2026-04-20 01:24 -31.39204 -61.36384 36932 ft 507 kts 167°
2026-04-20 01:25 -31.45950 -61.33825 36930 ft 508 kts 167°
2026-04-20 01:25 -31.52650 -61.31280 36931 ft 508 kts 167°
2026-04-20 01:26 -31.58256 -61.29150 36933 ft 508 kts 167°
2026-04-20 01:26 -31.66083 -61.26172 36932 ft 509 kts 167°
2026-04-20 01:27 -31.71709 -61.24028 36935 ft 509 kts 167°
2026-04-20 01:27 -31.78457 -61.21453 36934 ft 509 kts 167°
2026-04-20 01:28 -31.85166 -61.18889 36934 ft 509 kts 167°
2026-04-20 01:28 -31.91934 -61.16298 36932 ft 510 kts 167°
2026-04-20 01:29 -31.98657 -61.13720 36937 ft 510 kts 167°
2026-04-20 01:29 -32.05426 -61.11121 36936 ft 510 kts 167°
2026-04-20 01:30 -32.12183 -61.08523 36941 ft 511 kts 167°
2026-04-20 01:30 -32.18909 -61.05932 36938 ft 511 kts 167°
2026-04-20 01:31 -32.25695 -61.03314 36945 ft 511 kts 167°
2026-04-20 01:31 -32.32421 -61.00715 36941 ft 511 kts 167°
2026-04-20 01:32 -32.39177 -60.98100 36942 ft 511 kts 167°
2026-04-20 01:32 -32.45953 -60.95474 36942 ft 511 kts 167°
2026-04-20 01:33 -32.52689 -60.92859 36950 ft 512 kts 167°
2026-04-20 01:33 -32.59421 -60.90242 36949 ft 512 kts 167°
2026-04-20 01:34 -32.66217 -60.87595 36955 ft 513 kts 167°
2026-04-20 01:34 -32.72973 -60.84959 36961 ft 513 kts 167°
2026-04-20 01:35 -32.79773 -60.82302 36968 ft 514 kts 167°
2026-04-20 01:35 -32.86540 -60.79653 36970 ft 515 kts 168°
2026-04-20 01:36 -32.93234 -60.76433 36965 ft 524 kts 155°
2026-04-20 01:36 -32.96432 -60.74273 36569 ft 532 kts 154°
2026-04-20 01:36 -32.99593 -60.72046 36009 ft 532 kts 153°
2026-04-20 01:37 -33.02768 -60.69777 35387 ft 529 kts 153°
2026-04-20 01:37 -33.05915 -60.67537 34790 ft 524 kts 153°
2026-04-20 01:37 -33.09040 -60.65332 34354 ft 519 kts 153°
2026-04-20 01:37 -33.12170 -60.63147 33859 ft 518 kts 153°
2026-04-20 01:38 -33.15257 -60.61008 33357 ft 520 kts 154°
2026-04-20 01:38 -33.18410 -60.58829 32887 ft 524 kts 154°
2026-04-20 01:38 -33.21581 -60.56640 32411 ft 526 kts 154°
2026-04-20 01:38 -33.24754 -60.54444 31935 ft 526 kts 154°
2026-04-20 01:39 -33.27889 -60.52269 31483 ft 525 kts 154°
2026-04-20 01:39 -33.31052 -60.50072 31020 ft 525 kts 154°
2026-04-20 01:39 -33.34226 -60.47865 30559 ft 525 kts 154°
2026-04-20 01:39 -33.37383 -60.45667 30104 ft 525 kts 154°
2026-04-20 01:40 -33.40549 -60.43462 29581 ft 525 kts 154°
2026-04-20 01:40 -33.43671 -60.41285 29061 ft 525 kts 154°
2026-04-20 01:40 -33.46832 -60.39079 28573 ft 524 kts 154°
2026-04-20 01:40 -33.49992 -60.36873 28065 ft 524 kts 154°
2026-04-20 01:41 -33.53147 -60.34668 27584 ft 525 kts 154°
2026-04-20 01:41 -33.56311 -60.32455 27092 ft 525 kts 154°
2026-04-20 01:41 -33.59438 -60.30266 26614 ft 526 kts 154°
2026-04-20 01:41 -33.62610 -60.28043 26128 ft 527 kts 154°
2026-04-20 01:42 -33.65780 -60.25820 25640 ft 528 kts 154°
2026-04-20 01:42 -33.68961 -60.23586 25149 ft 528 kts 154°
2026-04-20 01:42 -33.72090 -60.21387 24664 ft 527 kts 154°
2026-04-20 01:42 -33.75237 -60.19172 24171 ft 518 kts 153°
2026-04-20 01:43 -33.78326 -60.16996 23675 ft 510 kts 153°
2026-04-20 01:43 -33.81335 -60.14735 23116 ft 509 kts 147°
2026-04-20 01:43 -33.84012 -60.12048 22621 ft 507 kts 139°
2026-04-20 01:43 -33.86397 -60.08925 22168 ft 504 kts 129°
2026-04-20 01:44 -33.88394 -60.05469 21705 ft 500 kts 125°
2026-04-20 01:44 -33.90299 -60.01971 21226 ft 496 kts 124°
2026-04-20 01:44 -33.92177 -59.98499 20783 ft 492 kts 124°
2026-04-20 01:44 -33.94031 -59.95091 20333 ft 488 kts 124°
2026-04-20 01:45 -33.95903 -59.91681 19878 ft 485 kts 124°
2026-04-20 01:45 -33.97760 -59.88322 19581 ft 474 kts 125°
2026-04-20 01:45 -33.99539 -59.85114 19483 ft 455 kts 125°
2026-04-20 01:45 -34.01248 -59.82038 19386 ft 438 kts 125°
2026-04-20 01:46 -34.02913 -59.79039 19281 ft 419 kts 125°
2026-04-20 01:46 -34.04496 -59.76185 19149 ft 397 kts 125°
2026-04-20 01:46 -34.05994 -59.73483 19053 ft 385 kts 125°
2026-04-20 01:46 -34.07495 -59.70774 18341 ft 392 kts 125°
2026-04-20 01:47 -34.09050 -59.67969 17215 ft 409 kts 124°
2026-04-20 01:47 -34.10643 -59.65090 16472 ft 413 kts 124°
2026-04-20 01:47 -34.12228 -59.62220 16003 ft 408 kts 124°
2026-04-20 01:47 -34.13765 -59.59432 15583 ft 403 kts 124°
2026-04-20 01:48 -34.15316 -59.56617 15113 ft 399 kts 124°
2026-04-20 01:48 -34.16853 -59.53827 14632 ft 396 kts 124°
2026-04-20 01:48 -34.18360 -59.51089 14166 ft 393 kts 124°
2026-04-20 01:48 -34.19868 -59.48348 13732 ft 388 kts 124°
2026-04-20 01:49 -34.21348 -59.45652 13334 ft 382 kts 123°
2026-04-20 01:49 -34.22466 -59.42773 12927 ft 375 kts 103°
2026-04-20 01:49 -34.22977 -59.39753 12589 ft 368 kts 99°
2026-04-20 01:49 -34.23424 -59.36715 12186 ft 364 kts 98°
2026-04-20 01:50 -34.23855 -59.33712 11789 ft 360 kts 98°
2026-04-20 01:50 -34.24285 -59.30739 11407 ft 356 kts 98°
2026-04-20 01:50 -34.24712 -59.27837 11026 ft 352 kts 98°
2026-04-20 01:50 -34.25143 -59.24938 10659 ft 349 kts 99°
2026-04-20 01:51 -34.25576 -59.22063 10346 ft 343 kts 98°
2026-04-20 01:51 -34.25994 -59.19295 10200 ft 333 kts 98°
2026-04-20 01:51 -34.26405 -59.16580 10046 ft 323 kts 98°
2026-04-20 01:51 -34.26806 -59.13927 9921 ft 313 kts 98°
2026-04-20 01:52 -34.27184 -59.11435 9889 ft 293 kts 98°
2026-04-20 01:52 -34.27553 -59.08989 9283 ft 294 kts 98°
2026-04-20 01:52 -34.27917 -59.06564 8896 ft 293 kts 98°
2026-04-20 01:52 -34.28276 -59.04176 8590 ft 291 kts 99°
2026-04-20 01:53 -34.28636 -59.01774 8281 ft 290 kts 99°
2026-04-20 01:53 -34.28995 -58.99377 7988 ft 289 kts 99°
2026-04-20 01:53 -34.29353 -58.96987 7693 ft 288 kts 99°
2026-04-20 01:53 -34.29710 -58.94606 7400 ft 286 kts 99°
2026-04-20 01:54 -34.30064 -58.92235 7112 ft 285 kts 99°
2026-04-20 01:54 -34.30416 -58.89878 6828 ft 284 kts 99°
2026-04-20 01:54 -34.30765 -58.87534 6540 ft 283 kts 99°
2026-04-20 01:54 -34.31111 -58.85215 6250 ft 282 kts 99°
2026-04-20 01:55 -34.31459 -58.82878 5959 ft 280 kts 98°
2026-04-20 01:55 -34.31790 -58.80581 5755 ft 275 kts 100°
2026-04-20 01:55 -34.32346 -58.78377 5523 ft 273 kts 111°
2026-04-20 01:55 -34.33209 -58.76362 5345 ft 268 kts 121°
2026-04-20 01:56 -34.34270 -58.74535 5199 ft 263 kts 127°
2026-04-20 01:56 -34.35438 -58.72889 5011 ft 259 kts 130°
2026-04-20 01:56 -34.36653 -58.71315 4877 ft 252 kts 132°
2026-04-20 01:56 -34.37890 -58.69850 4774 ft 245 kts 133°
2026-04-20 01:57 -34.39130 -58.68428 4665 ft 246 kts 134°
2026-04-20 01:57 -34.40398 -58.67013 4539 ft 249 kts 135°
2026-04-20 01:57 -34.41668 -58.65570 4470 ft 250 kts 134°
2026-04-20 01:57 -34.42910 -58.64085 4329 ft 253 kts 131°
2026-04-20 01:58 -34.44087 -58.62492 4214 ft 254 kts 128°
2026-04-20 01:58 -34.45214 -58.60824 4092 ft 257 kts 126°
2026-04-20 01:58 -34.46310 -58.59119 3876 ft 263 kts 124°
2026-04-20 01:58 -34.47363 -58.57324 3665 ft 258 kts 122°
2026-04-20 01:59 -34.48346 -58.55508 3362 ft 257 kts 120°
2026-04-20 01:59 -34.49247 -58.53658 2897 ft 247 kts 118°
2026-04-20 01:59 -34.50132 -58.51995 2625 ft 223 kts 123°
2026-04-20 01:59 -34.50981 -58.50527 2334 ft 202 kts 122°
2026-04-20 02:00 -34.51693 -58.49171 2127 ft 183 kts 117°
2026-04-20 02:00 -34.52361 -58.47888 1743 ft 177 kts 123°
2026-04-20 02:00 -34.53072 -58.46745 1469 ft 165 kts 122°
2026-04-20 02:00 -34.53662 -58.45576 1085 ft 161 kts 119°
2026-04-20 02:01 -34.54268 -58.44522 803 ft 146 kts 124°
2026-04-20 02:01 -34.54809 -58.43577 574 ft 128 kts 121°
2026-04-20 02:01 -34.55296 -58.42688 227 ft 124 kts 123°
2026-04-20 02:01 -34.55767 -58.41848 28 ft 117 kts 123°
2026-04-20 02:02 -34.56131 -58.41199 27 ft 64 kts 125°
2026-04-20 02:02 -34.56234 -58.40993 31 ft 20 kts 99°
2026-04-20 02:02 -34.56238 -58.40856 31 ft 13 kts 91°
2026-04-20 02:02 -34.56233 -58.40775 29 ft 7 kts 50°
2026-04-20 02:03 -34.56186 -58.40793 26 ft 9 kts 306°
2026-04-20 02:03 -34.56149 -58.40864 29 ft 10 kts 283°
2026-04-20 02:03 -34.56136 -58.40954 30 ft 11 kts 286°
2026-04-20 02:03 -34.56103 -58.41012 26 ft 7 kts 308°
2026-04-20 02:04 -34.56076 -58.41050 26 ft 4 kts 317°
2026-04-20 02:04 -34.56043 -58.41043 29 ft 3 kts 38°
2026-04-20 02:04 -34.56034 -58.41038 29 ft 3 kts 25°
2026-04-20 02:04 -34.56012 -58.41022 26 ft 4 kts 44°
2026-04-20 02:05 -34.56005 -58.40986 27 ft 4 kts 83°
2026-04-20 02:05 -34.56003 -58.40969 28 ft 0 kts 83°
2026-04-20 02:05 -34.56003 -58.40968 28 ft 0 kts 83°